Location: Slave Lake
(55.2830°N, 114.7830°W)
Time: 03:49:20
(UTC-06:00)

Amateur Radio Satellites - All Passes

Search period start: 22 August 2014 03:19
Search period end: 23 August 2014 03:19
Location: Slave Lake, 55.2830°N, 114.7830°W

Satellite Date Start Highest point End Downlink Frequencies (MHz)
Time Altitude Azimuth
Uribyol 2 22 Aug 03:28:10 03:33:01 39° 97° (E) 03:37:50 436.500 FM
JAS-1B 22 Aug 03:31:18 03:38:43 40° 91° (E) 03:44:57 435.800 - 435.900 CW/SSB
Oscar 16 22 Aug 03:38:21 03:43:36 84° 106° (ESE) 03:48:49 437.025 USB, Beacon 2401.1428
AO-27 22 Aug 03:42:01 03:47:02 47° 99° (E) 03:52:01 436.795 MHz FM
Sapphire 22 Aug 03:51:26 03:56:53 69° 43° (NE) 04:02:19 437.095 MHz 1200 baud AX-25 AFSK
OPAL 22 Aug 03:52:38 03:57:21 42° 59° (ENE) 04:02:10 ?
KITSAT 1 22 Aug 04:05:09 04:13:16 77° 319° (NW) 04:21:25 435.175 FM
TMSAT-1 22 Aug 04:13:20 04:18:09 34° 94° (E) 04:22:56 436.925 FM
PCSat 22 Aug 04:22:04 04:27:32 80° 231° (SW) 04:32:57 145.825 MHz
Saudisat 1A 22 Aug 04:24:39 04:28:54 44° 331° (NNW) 04:33:10 436.775 MHz
Oscar 19 22 Aug 04:44:48 04:49:33 36° 300° (WNW) 04:54:16 437.125 CW, 437.150 USB
AO-Echo 22 Aug 04:49:08 04:53:47 51° 294° (WNW) 04:58:20 ?
Gurwin Techsat 1B 22 Aug 04:55:05 05:00:27 84° 106° (ESE) 05:05:46 435.225 FM
ITAMSAT 1 22 Aug 04:55:06 05:00:10 55° 294° (WNW) 05:05:12 435.822 SSB
AO-7 22 Aug 05:05:49 05:12:55 30° 91° (E) 05:19:57 29.400 - 29.500 MHz
Uribyol 2 22 Aug 05:07:42 05:12:36 44° 297° (WNW) 05:17:29 436.500 FM
Oscar 16 22 Aug 05:18:26 05:22:26 23° 307° (NW) 05:26:26 437.025 USB, Beacon 2401.1428
AO-27 22 Aug 05:21:46 05:26:30 37° 300° (WNW) 05:31:13 436.795 MHz FM
JAS-1B 22 Aug 05:21:49 05:29:48 60° 298° (WNW) 05:36:25 435.800 - 435.900 CW/SSB
STRAND 1 22 Aug 05:22:45 05:25:55 17° 48° (NE) 05:29:06 ?
Uosat F 22 Aug 05:30:48 05:35:21 34° 95° (E) 05:39:53 435.120 FM
OPAL 22 Aug 05:31:34 05:36:18 41° 260° (W) 05:41:09 ?
Sapphire 22 Aug 05:35:16 05:40:01 32° 245° (WSW) 05:44:45 437.095 MHz 1200 baud AX-25 AFSK
TMSAT-1 22 Aug 05:53:11 05:58:18 51° 295° (WNW) 06:03:25 436.925 FM
KITSAT 1 22 Aug 06:02:13 06:09:51 43° 346° (NNW) 06:17:30 435.175 FM
Saudisat 1A 22 Aug 06:05:43 06:09:26 25° 354° (N) 06:13:08 436.775 MHz
PCSat 22 Aug 06:06:27 06:10:12 19° 252° (WSW) 06:13:56 145.825 MHz
Oscar 19 22 Aug 06:26:58 06:27:34 10° 321° (NW) 06:28:10 437.125 CW, 437.150 USB
Hamsat 22 Aug 06:28:45 06:31:25 16° 86° (E) 06:34:03 145.90 MHz
AO-Echo 22 Aug 06:29:40 06:31:34 12° 315° (NW) 06:33:28 ?
SO-50 22 Aug 06:32:33 06:35:23 17° 114° (ESE) 06:38:16 436.795 FM
Gurwin Techsat 1B 22 Aug 06:35:46 06:39:54 24° 307° (NW) 06:44:02 435.225 FM
ITAMSAT 1 22 Aug 06:35:58 06:38:41 15° 315° (NW) 06:41:24 435.822 SSB
Uribyol 2 22 Aug 06:49:02 06:50:55 12° 319° (NW) 06:52:48 436.500 FM
AO-7 22 Aug 06:58:21 07:06:43 86° 294° (WNW) 07:15:01 29.400 - 29.500 MHz
STRAND 1 22 Aug 06:59:14 07:04:19 68° 69° (ENE) 07:09:24 ?
AO-27 22 Aug 07:03:58 07:04:43 10° 322° (NW) 07:05:28 436.795 MHz FM
Uosat F 22 Aug 07:09:32 07:14:20 47° 296° (WNW) 07:19:07 435.120 FM
JAS-1B 22 Aug 07:12:51 07:18:45 22° 324° (NW) 07:24:00 435.800 - 435.900 CW/SSB
JAS-2 22 Aug 07:31:20 07:36:19 43° 98° (E) 07:41:17 435.800 - 435.900 CW/SSB, 435.910 FM
TMSAT-1 22 Aug 07:34:36 07:37:10 14° 316° (NW) 07:39:43 436.925 FM
Saudisat 1A 22 Aug 07:46:11 07:50:09 31° 18° (NNE) 07:54:05 436.775 MHz
KITSAT 1 22 Aug 07:59:30 08:07:09 42° 14° (NNE) 08:14:46 435.175 FM
Hamsat 22 Aug 08:03:35 08:08:00 85° 286° (WNW) 08:12:23 145.90 MHz
SO-50 22 Aug 08:10:43 08:15:14 77° 135° (SE) 08:19:54 436.795 FM
STRAND 1 22 Aug 08:39:53 08:44:00 24° 269° (W) 08:48:07 ?
Uosat F 22 Aug 08:50:03 08:52:04 12° 317° (NW) 08:54:05 435.120 FM
AO-7 22 Aug 08:51:36 08:58:40 33° 318° (NW) 09:05:43 29.400 - 29.500 MHz
JAS-1B 22 Aug 09:03:23 09:06:18 12° 351° (N) 09:09:06 435.800 - 435.900 CW/SSB
SO-67 22 Aug 09:06:20 09:09:50 85° 103° (ESE) 09:13:19 435.3500 MHz FM
JAS-2 22 Aug 09:16:41 09:21:29 37° 300° (WNW) 09:26:14 435.800 - 435.900 CW/SSB, 435.910 FM
HO-68 22 Aug 09:19:49 09:24:42 19° 84° (E) 09:29:34 435.675 MHz FM
UOSAT-12 22 Aug 09:22:40 09:27:05 44° 126° (SE) 09:31:35 437.025 FM, 437.400 FM
Saudisat 1A 22 Aug 09:25:51 09:30:18 81° 41° (NE) 09:34:44 436.775 MHz
Hamsat 22 Aug 09:40:37 09:43:22 17° 306° (NW) 09:46:07 145.90 MHz
RS-15 22 Aug 09:48:41 09:58:26 39° 111° (ESE) 10:08:06 29.354 - 29.394 USB, Beacon 29.352 USB
SO-50 22 Aug 09:51:57 09:56:13 36° 337° (NNW) 10:00:35 436.795 FM
KITSAT 1 22 Aug 09:55:36 10:03:45 76° 41° (NE) 10:11:50 435.175 FM
SO-67 22 Aug 10:40:42 10:42:23 13° 304° (WNW) 10:44:04 435.3500 MHz FM
UKube-1 22 Aug 10:43:51 10:47:51 34° 97° (E) 10:51:48 145.840 MHz, 145.915 MHz
AO-7 22 Aug 10:44:23 10:49:06 17° 344° (NNW) 10:53:50 29.400 - 29.500 MHz
JAS-1B 22 Aug 10:49:21 10:53:25 14° 18° (NNE) 10:57:16 435.800 - 435.900 CW/SSB
Oscar 11 22 Aug 10:59:49 11:03:49 33° 95° (E) 11:07:48 145.825 FM, Beacon 2401.500 USB
FUNcube-1 22 Aug 11:00:23 11:03:18 17° 88° (E) 11:06:15 145.950 - 145.970 MHz USB
UOSAT-12 22 Aug 11:02:40 11:07:15 52° 328° (NNW) 11:11:54 437.025 FM, 437.400 FM
Saudisat 1A 22 Aug 11:06:01 11:09:28 23° 242° (WSW) 11:12:54 436.775 MHz
HO-68 22 Aug 11:06:32 11:13:43 73° 106° (ESE) 11:20:52 435.675 MHz FM
SO-50 22 Aug 11:33:57 11:37:53 26° 2° (N) 11:41:54 436.795 FM
Oscar 16 22 Aug 11:48:11 11:50:27 13° 43° (NE) 11:52:43 437.025 USB, Beacon 2401.1428
KITSAT 1 22 Aug 11:51:21 11:58:44 41° 245° (WSW) 12:06:05 435.175 FM
RS-15 22 Aug 11:58:45 12:09:47 87° 318° (NW) 12:20:51 29.354 - 29.394 USB, Beacon 29.352 USB
UKube-1 22 Aug 12:20:05 12:24:07 38° 296° (WNW) 12:28:08 145.840 MHz, 145.915 MHz
JAS-1B 22 Aug 12:33:38 12:41:16 28° 43° (NE) 12:48:15 435.800 - 435.900 CW/SSB
AO-7 22 Aug 12:34:23 12:38:50 16° 12° (NNE) 12:43:16 29.400 - 29.500 MHz
FUNcube-1 22 Aug 12:35:51 12:40:15 79° 287° (WNW) 12:44:44 145.950 - 145.970 MHz USB
Oscar 11 22 Aug 12:36:00 12:40:05 39° 295° (WNW) 12:44:09 145.825 FM, Beacon 2401.500 USB
UOSAT-12 22 Aug 12:44:14 12:48:19 28° 352° (N) 12:52:26 437.025 FM, 437.400 FM
Oscar 19 22 Aug 12:51:16 12:55:40 29° 57° (ENE) 13:00:06 437.125 CW, 437.150 USB
AO-Echo 22 Aug 12:53:55 12:57:16 18° 51° (NE) 13:00:35 ?
HO-68 22 Aug 12:54:40 13:01:02 36° 309° (NW) 13:07:23 435.675 MHz FM
ITAMSAT 1 22 Aug 13:03:31 13:07:20 21° 51° (NE) 13:11:08 435.822 SSB
Gurwin Techsat 1B 22 Aug 13:07:41 13:10:18 14° 44° (NE) 13:12:55 435.225 FM
SO-50 22 Aug 13:15:05 13:19:31 40° 25° (NNE) 13:24:02 436.795 FM
Uribyol 2 22 Aug 13:15:23 13:19:34 26° 55° (NE) 13:23:45 436.500 FM
Oscar 16 22 Aug 13:23:46 13:28:43 48° 64° (ENE) 13:33:42 437.025 USB, Beacon 2401.1428
AO-27 22 Aug 13:29:09 13:33:37 30° 57° (ENE) 13:38:06 436.795 MHz FM
TMSAT-1 22 Aug 14:03:16 14:07:22 23° 53° (NE) 14:11:28 436.925 FM
RS-15 22 Aug 14:12:44 14:23:25 54° 349° (N) 14:34:15 29.354 - 29.394 USB, Beacon 29.352 USB
FUNcube-1 22 Aug 14:13:26 14:16:02 16° 307° (NW) 14:18:40 145.950 - 145.970 MHz USB
JAS-1B 22 Aug 14:20:48 14:30:33 69° 65° (ENE) 14:39:23 435.800 - 435.900 CW/SSB
AO-7 22 Aug 14:22:21 14:29:05 29° 38° (NE) 14:35:49 29.400 - 29.500 MHz
UOSAT-12 22 Aug 14:25:24 14:29:39 31° 16° (NNE) 14:33:54 437.025 FM, 437.400 FM
Oscar 19 22 Aug 14:29:37 14:34:44 62° 258° (WSW) 14:39:54 437.125 CW, 437.150 USB
AO-Echo 22 Aug 14:30:17 14:35:24 78° 71° (ENE) 14:40:23 ?
ITAMSAT 1 22 Aug 14:41:02 14:46:14 88° 72° (ENE) 14:51:27 435.822 SSB
HO-68 22 Aug 14:43:18 14:46:53 15° 333° (NNW) 14:50:27 435.675 MHz FM
Gurwin Techsat 1B 22 Aug 14:44:05 14:49:12 51° 65° (ENE) 14:54:21 435.225 FM
Uribyol 2 22 Aug 14:53:29 14:58:38 73° 255° (WSW) 15:03:50 436.500 FM
SO-50 22 Aug 14:55:42 15:00:25 69° 227° (SW) 15:05:12 436.795 FM
ISS 22 Aug 15:02:53 15:04:03 12° 143° (SE) 15:05:14 145.800 FM
Oscar 16 22 Aug 15:03:35 15:08:16 35° 265° (W) 15:13:00 437.025 USB, Beacon 2401.1428
AO-27 22 Aug 15:07:46 15:12:54 60° 258° (WSW) 15:18:03 436.795 MHz FM
Uosat F 22 Aug 15:14:14 15:18:00 22° 53° (NE) 15:21:47 435.120 FM
TMSAT-1 22 Aug 15:41:27 15:46:46 84° 254° (WSW) 15:52:06 436.925 FM
MaSat-1 22 Aug 15:50:21 15:54:21 25° 107° (ESE) 15:58:32 437.345 MHz
UOSAT-12 22 Aug 16:05:44 16:10:30 72° 39° (NE) 16:15:13 437.025 FM, 437.400 FM
JAS-2 22 Aug 16:09:39 16:12:29 14° 43° (NE) 16:15:12 435.800 - 435.900 CW/SSB, 435.910 FM
AO-Echo 22 Aug 16:10:57 16:14:44 21° 271° (W) 16:18:27 ?
JAS-1B 22 Aug 16:12:07 16:21:26 45° 266° (W) 16:30:04 435.800 - 435.900 CW/SSB
AO-7 22 Aug 16:12:28 16:20:46 73° 62° (ENE) 16:29:05 29.400 - 29.500 MHz
Oscar 19 22 Aug 16:13:15 16:15:11 12° 279° (W) 16:17:08 437.125 CW, 437.150 USB
ITAMSAT 1 22 Aug 16:22:54 16:26:28 19° 273° (W) 16:30:03 435.822 SSB
Gurwin Techsat 1B 22 Aug 16:24:37 16:29:24 34° 266° (W) 16:34:14 435.225 FM
RS-15 22 Aug 16:27:02 16:37:52 60° 21° (NNE) 16:48:57 29.354 - 29.394 USB, Beacon 29.352 USB
Uribyol 2 22 Aug 16:36:21 16:39:04 14° 276° (W) 16:41:48 436.500 FM
ISS 22 Aug 16:37:04 16:40:03 31° 162° (SSE) 16:43:04 145.800 FM
SO-50 22 Aug 16:37:28 16:40:15 16° 247° (WSW) 16:43:02 436.795 FM
Uosat F 22 Aug 16:51:14 16:56:16 86° 253° (WSW) 17:01:20 435.120 FM
AO-27 22 Aug 16:51:53 16:53:33 11° 279° (W) 16:55:14 436.795 MHz FM
TMSAT-1 22 Aug 17:24:07 17:27:32 17° 275° (W) 17:30:57 436.925 FM
MaSat-1 22 Aug 17:26:00 17:31:00 77° 309° (NW) 17:36:16 437.345 MHz
Hamsat 22 Aug 17:28:48 17:32:27 28° 61° (ENE) 17:36:09 145.90 MHz
OPAL 22 Aug 17:33:44 17:38:18 30° 96° (E) 17:42:52 ?
UOSAT-12 22 Aug 17:46:18 17:50:21 28° 240° (WSW) 17:54:21 437.025 FM, 437.400 FM
JAS-2 22 Aug 17:50:30 17:56:32 49° 64° (ENE) 18:01:56 435.800 - 435.900 CW/SSB, 435.910 FM
AO-7 22 Aug 18:06:40 18:14:14 37° 265° (W) 18:21:51 29.400 - 29.500 MHz
JAS-1B 22 Aug 18:10:31 18:14:21 13° 289° (WNW) 18:18:06 435.800 - 435.900 CW/SSB
HO-68 22 Aug 18:13:06 18:16:32 14° 26° (NNE) 18:19:59 435.675 MHz FM
ISS 22 Aug 18:13:14 18:16:26 44° 182° (S) 18:19:38 145.800 FM
SO-67 22 Aug 18:15:31 18:17:04 13° 56° (NE) 18:18:36 435.3500 MHz FM
Uosat F 22 Aug 18:32:41 18:35:51 17° 274° (W) 18:39:00 435.120 FM
RS-15 22 Aug 18:39:58 18:50:55 76° 230° (SW) 19:02:14 29.354 - 29.394 USB, Beacon 29.352 USB
Sapphire 22 Aug 18:44:46 18:46:20 11° 102° (ESE) 18:47:55 437.095 MHz 1200 baud AX-25 AFSK
STRAND 1 22 Aug 19:03:59 19:06:25 13° 83° (E) 19:08:50 ?
Hamsat 22 Aug 19:04:04 19:08:15 48° 261° (W) 19:12:29 145.90 MHz
MaSat-1 22 Aug 19:04:35 19:08:56 27° 331° (NNW) 19:13:20 437.345 MHz
OPAL 22 Aug 19:12:23 19:17:30 58° 296° (WNW) 19:22:37 ?
PCSat 22 Aug 19:12:29 19:16:18 20° 108° (ESE) 19:20:08 145.825 MHz
JAS-2 22 Aug 19:35:49 19:41:48 40° 263° (W) 19:47:11 435.800 - 435.900 CW/SSB, 435.910 FM
SO-67 22 Aug 19:46:06 19:49:35 90° 229° (SW) 19:53:06 435.3500 MHz FM
ISS 22 Aug 19:49:53 19:52:46 27° 202° (SSW) 19:55:39 145.800 FM
Oscar 10/S400 22 Aug 19:55:56 20:12:08 26° 143° (SE) 20:49:25 145.825 - 145.975 CW/USB, Beacon 145.810 USB
HO-68 22 Aug 19:56:03 20:02:20 35° 50° (NE) 20:08:38 435.675 MHz FM
UKube-1 22 Aug 20:12:29 20:14:59 15° 51° (NE) 20:17:30 145.840 MHz, 145.915 MHz
Sapphire 22 Aug 20:23:21 20:28:35 53° 122° (ESE) 20:33:52 437.095 MHz 1200 baud AX-25 AFSK
Oscar 11 22 Aug 20:28:31 20:30:34 13° 50° (NE) 20:32:38 145.825 FM, Beacon 2401.500 USB
STRAND 1 22 Aug 20:41:29 20:46:36 70° 104° (ESE) 20:51:40 ?
MaSat-1 22 Aug 20:44:21 20:47:42 17° 355° (N) 20:51:01 437.345 MHz
OPAL 22 Aug 20:52:25 20:55:28 16° 317° (NW) 20:58:32 ?
RS-15 22 Aug 20:52:58 21:01:35 28° 256° (WSW) 21:10:27 29.354 - 29.394 USB, Beacon 29.352 USB
PCSat 22 Aug 20:53:35 20:59:00 83° 130° (SE) 21:04:29 145.825 MHz
SO-67 22 Aug 21:22:36 21:23:14 10° 275° (W) 21:23:52 435.3500 MHz FM
HO-68 22 Aug 21:42:26 21:49:36 76° 253° (WSW) 21:56:48 435.675 MHz FM
UKube-1 22 Aug 21:46:11 21:50:32 76° 71° (ENE) 21:54:54 145.840 MHz, 145.915 MHz
Oscar 11 22 Aug 22:01:42 22:05:59 64° 70° (ENE) 22:10:19 145.825 FM, Beacon 2401.500 USB
FUNcube-1 22 Aug 22:03:48 22:07:30 31° 62° (ENE) 22:11:16 145.950 - 145.970 MHz USB
Sapphire 22 Aug 22:06:56 22:12:10 47° 325° (NW) 22:17:26 437.095 MHz 1200 baud AX-25 AFSK
STRAND 1 22 Aug 22:21:14 22:25:25 26° 305° (NW) 22:29:36 ?
MaSat-1 22 Aug 22:22:47 22:26:38 21° 19° (NNE) 22:30:20 437.345 MHz
PCSat 22 Aug 22:38:00 22:42:59 35° 333° (NNW) 22:47:59 145.825 MHz
UKube-1 22 Aug 23:24:20 23:27:17 18° 271° (W) 23:30:14 145.840 MHz, 145.915 MHz
HO-68 22 Aug 23:33:30 23:38:33 20° 275° (W) 23:43:37 435.675 MHz FM
Oscar 11 22 Aug 23:39:23 23:42:37 20° 270° (W) 23:45:52 145.825 FM, Beacon 2401.500 USB
FUNcube-1 22 Aug 23:39:57 23:43:52 39° 263° (W) 23:47:51 145.950 - 145.970 MHz USB
Sapphire 22 Aug 23:52:22 23:56:50 25° 350° (N) 00:01:19 437.095 MHz 1200 baud AX-25 AFSK
MaSat-1 23 Aug 00:00:00 00:04:58 47° 42° (NE) 00:09:30 437.345 MHz
PCSat 23 Aug 00:23:30 00:27:52 24° 358° (N) 00:32:15 145.825 MHz
KITSAT 1 23 Aug 00:36:35 00:40:32 15° 98° (E) 00:44:30 435.175 FM
Saudisat 1A 23 Aug 01:19:44 01:22:33 17° 115° (ESE) 01:25:21 436.775 MHz
Sapphire 23 Aug 01:37:17 01:41:53 27° 15° (NNE) 01:46:30 437.095 MHz 1200 baud AX-25 AFSK
MaSat-1 23 Aug 01:37:22 01:42:05 42° 245° (WSW) 01:46:21 437.345 MHz
JAS-1B 23 Aug 02:02:20 02:04:54 12° 69° (ENE) 02:07:20 435.800 - 435.900 CW/SSB
PCSat 23 Aug 02:07:57 02:12:50 32° 24° (NNE) 02:17:42 145.825 MHz
KITSAT 1 23 Aug 02:26:22 02:34:08 53° 120° (ESE) 02:41:56 435.175 FM
AO-Echo 23 Aug 02:31:36 02:34:05 14° 84° (E) 02:36:33 ?
Oscar 19 23 Aug 02:33:57 02:38:28 29° 93° (E) 02:42:57 437.125 CW, 437.150 USB
ITAMSAT 1 23 Aug 02:47:17 02:50:55 19° 87° (E) 02:54:31 435.822 SSB
Gurwin Techsat 1B 23 Aug 02:54:51 02:56:35 11° 80° (E) 02:58:19 435.225 FM
Saudisat 1A 23 Aug 02:57:04 03:01:30 79° 135° (SE) 03:05:57 436.775 MHz
Uribyol 2 23 Aug 02:59:10 03:03:21 24° 91° (E) 03:07:31 436.500 FM
Oscar 16 23 Aug 03:07:03 03:12:08 51° 100° (E) 03:17:12 437.025 USB, Beacon 2401.1428
